Defiance, OH

3:59 AM EST on November 18, 2019 (GMT -0500)
Defiance Memorial

Weather History for KDFI - October, 2019

Change the Weather History Date:

Wednesday, October 23, 2019

  Actual Average Record
Temperature  
Mean Temperature 52 °F -  
Max Temperature 63 °F 60 °F 82 °F (1963)
Min Temperature 41 °F 37 °F 24 °F (1969)
Degree Days  
Heating Degree Days 13    
Growing Degree Days 2 (Base 50)    
Moisture  
Dew Point 35 °F    
Average Humidity 55    
Maximum Humidity 82    
Minimum Humidity 34    
Precipitation  
Precipitation 0.00 in - - ()
Sea Level Pressure  
Sea Level Pressure 29.97 in    
Wind  
Wind Speed 8 mph ()    
Max Wind Speed 17 mph    
Max Gust Speed 26 mph    
Visibility 10.0 miles    
Events      
Averages and records for this station are not official NWS values.
T = Trace of Precipitation, MM = Missing Value Source: Averaged Metar Reports

Daily Weather History Graph

Daily Weather History Graph

Search for Another Location

Airport or City:

Astronomy

Oct. 23, 2019 Rise Set
Actual Time 7:58 AM EDT 6:45 PM EDT
Civil Twilight 7:30 AM EDT 7:13 PM EDT
Nautical Twilight 6:57 AM EDT 7:45 PM EDT
Astronomical Twilight 6:25 AM EDT 8:17 PM EDT
Moon 2:11 AM EDT (10/23) 4:39 PM EDT (10/23)
Length of Visible Light 11h 43m
Length of Day
10h 46m
Waning Crescent, 27% of the Moon is Illuminated
Oct 23
Waning Crescent
Oct 27
New
Nov 4
First Quarter
Nov 12
Full
Nov 19
Last Quarter

Hourly Weather History & Observations

Time (EDT) Temp. Windchill Dew Point Humidity Pressure Visibility Wind Dir Wind Speed Gust Speed Precip Events Conditions
12:53 AM 46.9 °F - 41.0 °F 80% 29.84 in 10.0 mi SW 5.8 mph - 0.00 in   Mostly Cloudy
1:53 AM 44.1 °F 40.8 °F 39.0 °F 82% 29.85 in 10.0 mi SSW 5.8 mph - N/A   Clear
2:53 AM 44.1 °F 40.1 °F 37.9 °F 79% 29.86 in 10.0 mi SSW 6.9 mph - N/A   Clear
3:53 AM 44.1 °F 39.5 °F 35.1 °F 71% 29.88 in 10.0 mi SW 8.1 mph - N/A   Clear
4:53 AM 43.0 °F 38.2 °F 34.0 °F 71% 29.89 in 10.0 mi SSW 8.1 mph - N/A   Clear
5:53 AM 42.1 °F 36.6 °F 34.0 °F 73% 29.91 in 10.0 mi SSW 9.2 mph - N/A   Clear
6:53 AM 41.0 °F 35.8 °F 33.1 °F 73% 29.93 in 10.0 mi SSW 8.1 mph - N/A   Clear
7:53 AM 42.1 °F 36.6 °F 32.0 °F 67% 29.96 in 10.0 mi SW 9.2 mph - N/A   Clear
8:53 AM 43.0 °F 36.8 °F 32.0 °F 65% 29.99 in 10.0 mi SW 11.5 mph - N/A   Clear
9:53 AM 46.0 °F 40.6 °F 33.1 °F 61% 30.01 in 10.0 mi SW 11.5 mph 20.7 mph N/A   Clear
10:53 AM 50.0 °F - 34.0 °F 54% 30.03 in 10.0 mi SW 11.5 mph 20.7 mph N/A   Clear
11:53 AM 54.0 °F - 34.0 °F 47% 30.03 in 10.0 mi SW 17.3 mph 25.3 mph N/A   Clear
1:53 PM 60.1 °F - 34.0 °F 38% 30.02 in 10.0 mi SW 12.7 mph 23.0 mph N/A   Clear
2:53 PM 60.1 °F - 34.0 °F 38% 30.01 in 10.0 mi SW 12.7 mph 24.2 mph N/A   Overcast
3:53 PM 63.0 °F - 34.0 °F 34% 30.00 in 10.0 mi SW 9.2 mph 26.5 mph N/A   Mostly Cloudy
4:53 PM 63.0 °F - 34.0 °F 34% 30.00 in 10.0 mi SW 9.2 mph 20.7 mph N/A   Clear
5:53 PM 62.1 °F - 33.1 °F 34% 30.00 in 10.0 mi SSW 12.7 mph 24.2 mph N/A   Partly Cloudy
6:53 PM 59.0 °F - 34.0 °F 39% 30.01 in 10.0 mi South 12.7 mph - N/A   Clear
7:53 PM 55.0 °F - 34.0 °F 45% 30.03 in 10.0 mi SSW 6.9 mph - N/A   Clear
8:53 PM 54.0 °F - 35.1 °F 49% 30.04 in 10.0 mi SSW 10.4 mph - N/A   Clear
9:53 PM 55.0 °F - 34.0 °F 45% 30.03 in 10.0 mi SSW 12.7 mph - N/A   Clear
10:53 PM 54.0 °F - 35.1 °F 49% 30.04 in 10.0 mi SSW 12.7 mph - N/A   Clear
11:53 PM 55.0 °F - 35.1 °F 47% 30.05 in 10.0 mi SSW 10.4 mph 21.9 mph N/A   Mostly Cloudy